QPF
0.01 0.01 0.01 0.01 0.01 0.01 0.01 0.01 0.02 0.03 0.03 0.03 0.03 0.03 0.02 0.03 0.03 0.02 0.02 0.03 0.02 0.02 0.01 0.01 0.02 0.02 0.03 0.04 0.06 0.05 0.03 0.03 0.02 0.02 0.02 0.02 0.02 0.03 0.02 0.02 0.02 0.01 0.01
0.04 0.03 0.01 0.01 0.01 0.01 0.01 0.01 0.02 0.02 0.03 0.03 0.03 0.03 0.02 0.03 0.04 0.03 0.03 0.03 0.04 0.03 0.03 0.02 0.02 0.03 0.06 0.05 0.06 0.07 0.04 0.03 0.02 0.02 0.02 0.02 0.02 0.02 0.02 0.02 0.02 0.01 0.01
0.05 0.03 0.01 0.01 0.02 0.01 0.02 0.02 0.02 0.03 0.03 0.03 0.04 0.03 0.04 0.04 0.04 0.04 0.05 0.05 0.05 0.04 0.04 0.03 0.02 0.02 0.05 0.06 0.04 0.03 0.03 0.04 0.04 0.02 0.02 0.03 0.02 0.02 0.02 0.02 0.01 0.01 0.01
0.03 0.02 0.02 0.03 0.03 0.04 0.03 0.03 0.03 0.04 0.03 0.03 0.03 0.04 0.04 0.05 0.05 0.06 0.07 0.07 0.07 0.06 0.05 0.05 0.04 0.03 0.02 0.02 0.01 0.01 0.02 0.02 0.03 0.02 0.02 0.03 0.02 0.02 0.01 0.02 0.02 0.01 0.01
0.05 0.04 0.03 0.05 0.06 0.05 0.04 0.04 0.04 0.04 0.04 0.03 0.02 0.02 0.03 0.03 0.04 0.05 0.05 0.06 0.06 0.05 0.04 0.03 0.02 0.01 0.01 0.01 0.00 0.00 0.01 0.01 0.01 0.01 0.01 0.02 0.02 0.01 0.01 0.02 0.03 0.03 0.01
0.04 0.05 0.06 0.05 0.05 0.04 0.04 0.04 0.04 0.03 0.03 0.03 0.02 0.02 0.03 0.03 0.04 0.04 0.03 0.03 0.03 0.04 0.03 0.02 0.01 0.01 0.01 0.01 0.01 0.01 0.01 0.01 0.00 0.00 0.01 0.02 0.01 0.01 0.01 0.01 0.03 0.03 0.02
0.05 0.06 0.06 0.06 0.06 0.06 0.06 0.06 0.05 0.04 0.04 0.04 0.03 0.02 0.02 0.02 0.04 0.03 0.03 0.03 0.02 0.01 0.01 0.01 0.00 0.01 0.01 0.01 0.01 0.02 0.01 0.01 0.01 0.01 0.01 0.01 0.01 0.01 0.02 0.02 0.03 0.02 0.02
0.05 0.05 0.05 0.07 0.07 0.05 0.05 0.05 0.06 0.06 0.05 0.05 0.04 0.04 0.03 0.03 0.05 0.04 0.04 0.04 0.03 0.02 0.02 0.01 0.01 0.02 0.01 0.01 0.01 0.01 0.01 0.01 0.01 0.01 0.01 0.01 0.01 0.01 0.01 0.02 0.02 0.02 0.02
0.03 0.04 0.05 0.05 0.04 0.03 0.03 0.04 0.06 0.07 0.06 0.05 0.04 0.05 0.06 0.07 0.09 0.08 0.07 0.05 0.04 0.05 0.05 0.05 0.04 0.03 0.02 0.01 0.01 0.01 0.01 0.01 0.01 0.01 0.01 0.01 0.01 0.01 0.01 0.02 0.02 0.02 0.02
0.02 0.03 0.02 0.02 0.02 0.01 0.02 0.03 0.03 0.03 0.03 0.04 0.04 0.04 0.06 0.09 0.11 0.10 0.11 0.10 0.09 0.09 0.07 0.05 0.05 0.03 0.02 0.02 0.02 0.02 0.01 0.01 0.01 0.01 0.01 0.01 0.02 0.02 0.02 0.02 0.02 0.03 0.03
0.01 0.01 0.01 0.02 0.02 0.01 0.01 0.01 0.02 0.02 0.02 0.03 0.04 0.04 0.06 0.08 0.10 0.11 0.13 0.12 0.10 0.07 0.05 0.04 0.03 0.03 0.02 0.02 0.01 0.02 0.02 0.02 0.02 0.01 0.01 0.01 0.01 0.02 0.02 0.02 0.03 0.03 0.03
0.01 0.01 0.01 0.01 0.01 0.01 0.01 0.02 0.02 0.03 0.03 0.04 0.04 0.04 0.05 0.06 0.07 0.08 0.08 0.08 0.07 0.07 0.06 0.05 0.03 0.04 0.03 0.03 0.02 0.02 0.03 0.02 0.02 0.02 0.02 0.02 0.02 0.02 0.02 0.02 0.02 0.04 0.04
0.01 0.01 0.01 0.01 0.01 0.01 0.01 0.01 0.01 0.02 0.02 0.02 0.03 0.03 0.03 0.04 0.05 0.05 0.06 0.06 0.06 0.06 0.06 0.05 0.05 0.04 0.03 0.02 0.02 0.02 0.03 0.02 0.02 0.01 0.01 0.01 0.02 0.02 0.02 0.02 0.02 0.02 0.03
0.02 0.02 0.03 0.02 0.02 0.03 0.02 0.02 0.02 0.02 0.02 0.02 0.02 0.02 0.03 0.04 0.04 0.04 0.05 0.05 0.06 0.08 0.09 0.07 0.05 0.04 0.02 0.02 0.02 0.02 0.02 0.02 0.02 0.02 0.02 0.01 0.01 0.01 0.01 0.02 0.02 0.02 0.02
0.03 0.03 0.04 0.03 0.04 0.04 0.04 0.03 0.04 0.04 0.04 0.03 0.03 0.03 0.03 0.02 0.02 0.03 0.04 0.05 0.06 0.07 0.08 0.07 0.05 0.04 0.03 0.02 0.01 0.02 0.02 0.02 0.03 0.03 0.03 0.02 0.02 0.02 0.02 0.02 0.02 0.02 0.02
0.02 0.03 0.03 0.03 0.03 0.04 0.03 0.03 0.04 0.04 0.03 0.03 0.03 0.03 0.02 0.02 0.02 0.02 0.02 0.03 0.04 0.04 0.04 0.04 0.04 0.04 0.03 0.02 0.02 0.02 0.02 0.03 0.03 0.03 0.03 0.03 0.02 0.02 0.02 0.02 0.02 0.02 0.02
0.02 0.02 0.03 0.03 0.03 0.03 0.03 0.02 0.02 0.02 0.02 0.02 0.02 0.02 0.02 0.02 0.02 0.02 0.03 0.04 0.05 0.04 0.03 0.03 0.04 0.03 0.03 0.03 0.03 0.03 0.03 0.04 0.05 0.04 0.04 0.04 0.03 0.03 0.02 0.02 0.02 0.02 0.01
0.01 0.02 0.02 0.02 0.03 0.02 0.02 0.02 0.03 0.02 0.02 0.01 0.02 0.03 0.04 0.05 0.05 0.07 0.07 0.06 0.05 0.05 0.03 0.03 0.03 0.03 0.04 0.04 0.04 0.04 0.05 0.05 0.06 0.07 0.07 0.06 0.05 0.03 0.02 0.01 0.01 0.01 0.01
0.03 0.03 0.03 0.03 0.04 0.03 0.04 0.04 0.04 0.04 0.03 0.03 0.03 0.05 0.08 0.08 0.08 0.09 0.10 0.08 0.06 0.04 0.04 0.05 0.04 0.04 0.04 0.04 0.05 0.06 0.06 0.07 0.08 0.08 0.06 0.04 0.03 0.02 0.01 0.01 0.01 0.01 0.01
0.04 0.04 0.05 0.05 0.04 0.05 0.05 0.05 0.04 0.04 0.03 0.03 0.03 0.04 0.05 0.06 0.06 0.07 0.08 0.08 0.06 0.06 0.05 0.05 0.05 0.05 0.04 0.04 0.06 0.08 0.09 0.08 0.06 0.05 0.04 0.04 0.03 0.03 0.03 0.02 0.02 0.01 0.01
0.05 0.06 0.06 0.06 0.05 0.05 0.06 0.06 0.05 0.04 0.03 0.03 0.02 0.03 0.04 0.04 0.04 0.04 0.04 0.05 0.05 0.05 0.05 0.06 0.06 0.05 0.05 0.05 0.05 0.06 0.06 0.05 0.05 0.05 0.04 0.03 0.03 0.03 0.03 0.03 0.03 0.02 0.02
0.04 0.05 0.06 0.06 0.06 0.06 0.06 0.05 0.05 0.04 0.04 0.04 0.03 0.04 0.04 0.03 0.03 0.03 0.03 0.04 0.05 0.06 0.06 0.06 0.06 0.05 0.05 0.06 0.05 0.05 0.04 0.03 0.03 0.03 0.03 0.03 0.02 0.02 0.02 0.02 0.02 0.02 0.02
0.03 0.04 0.04 0.04 0.05 0.06 0.06 0.05 0.05 0.06 0.06 0.05 0.05 0.05 0.05 0.04 0.03 0.03 0.03 0.04 0.04 0.04 0.04 0.04 0.05 0.05 0.04 0.04 0.04 0.04 0.03 0.03 0.03 0.04 0.03 0.03 0.02 0.02 0.02 0.02 0.01 0.01 0.01
0.03 0.03 0.03 0.03 0.04 0.04 0.05 0.05 0.06 0.05 0.05 0.05 0.07 0.07 0.06 0.05 0.05 0.05 0.05 0.05 0.05 0.05 0.05 0.04 0.04 0.03 0.03 0.03 0.03 0.03 0.03 0.03 0.03 0.04 0.03 0.03 0.03 0.03 0.03 0.03 0.02 0.02 0.02
0.02 0.04 0.03 0.04 0.04 0.04 0.03 0.02 0.03 0.03 0.03 0.03 0.05 0.05 0.05 0.05 0.04 0.04 0.04 0.04 0.05 0.05 0.05 0.05 0.04 0.04 0.03 0.03 0.03 0.03 0.03 0.03 0.03 0.04 0.04 0.04 0.04 0.04 0.04 0.04 0.04 0.03 0.03
0.03 0.05 0.06 0.05 0.04 0.05 0.05 0.04 0.03 0.03 0.04 0.04 0.04 0.04 0.04 0.04 0.03 0.03 0.04 0.04 0.05 0.04 0.04 0.04 0.04 0.04 0.04 0.04 0.04 0.04 0.04 0.04 0.05 0.05 0.06 0.05 0.05 0.05 0.05 0.05 0.04 0.04 0.04
MSLP
1015.02 1014.99 1014.97 1014.90 1014.75 1014.50 1014.14 1013.72 1013.27 1012.83 1012.43 1012.08 1011.80 1011.55 1011.32 1011.07 1010.78 1010.47 1010.13 1009.81 1009.52 1009.30 1009.15 1009.09 1009.08 1009.10 1009.12 1009.11 1009.04 1008.92 1008.76 1008.57 1008.39 1008.24 1008.14 1008.10 1008.12 1008.18 1008.27 1008.38 1008.50 1008.64 1008.80
1015.56 1015.49 1015.41 1015.29 1015.08 1014.77 1014.39 1013.95 1013.48 1013.04 1012.64 1012.30 1012.01 1011.75 1011.50 1011.22 1010.91 1010.56 1010.18 1009.80 1009.45 1009.14 1008.90 1008.73 1008.61 1008.53 1008.46 1008.38 1008.28 1008.16 1008.03 1007.89 1007.77 1007.69 1007.65 1007.66 1007.71 1007.79 1007.89 1008.01 1008.13 1008.27 1008.44
1016.04 1015.95 1015.82 1015.64 1015.37 1015.02 1014.59 1014.12 1013.64 1013.19 1012.79 1012.44 1012.15 1011.87 1011.60 1011.31 1010.98 1010.60 1010.18 1009.76 1009.34 1008.96 1008.63 1008.36 1008.14 1007.96 1007.81 1007.67 1007.54 1007.41 1007.29 1007.19 1007.12 1007.10 1007.12 1007.18 1007.26 1007.37 1007.48 1007.60 1007.73 1007.87 1008.04
1016.39 1016.28 1016.13 1015.89 1015.57 1015.17 1014.70 1014.20 1013.70 1013.24 1012.82 1012.47 1012.15 1011.87 1011.57 1011.25 1010.89 1010.47 1010.03 1009.56 1009.09 1008.65 1008.25 1007.91 1007.61 1007.35 1007.13 1006.94 1006.78 1006.63 1006.52 1006.45 1006.42 1006.43 1006.50 1006.59 1006.71 1006.85 1006.98 1007.12 1007.25 1007.40 1007.58
1016.56 1016.45 1016.27 1015.99 1015.63 1015.19 1014.69 1014.16 1013.65 1013.17 1012.74 1012.36 1012.02 1011.69 1011.36 1011.00 1010.59 1010.14 1009.65 1009.14 1008.64 1008.15 1007.71 1007.31 1006.96 1006.66 1006.40 1006.17 1005.98 1005.83 1005.71 1005.64 1005.63 1005.67 1005.75 1005.87 1006.02 1006.17 1006.33 1006.49 1006.65 1006.82 1007.01
1016.54 1016.43 1016.23 1015.93 1015.54 1015.07 1014.55 1014.01 1013.48 1012.99 1012.54 1012.13 1011.75 1011.38 1010.99 1010.57 1010.10 1009.59 1009.06 1008.51 1007.97 1007.46 1007.00 1006.58 1006.21 1005.89 1005.61 1005.37 1005.16 1004.99 1004.86 1004.79 1004.76 1004.79 1004.87 1004.99 1005.15 1005.32 1005.50 1005.69 1005.89 1006.10 1006.32
1016.36 1016.23 1016.02 1015.71 1015.30 1014.82 1014.29 1013.75 1013.23 1012.73 1012.26 1011.82 1011.40 1010.96 1010.51 1010.01 1009.47 1008.90 1008.31 1007.73 1007.16 1006.64 1006.17 1005.76 1005.40 1005.09 1004.81 1004.56 1004.35 1004.16 1004.01 1003.90 1003.83 1003.83 1003.87 1003.97 1004.11 1004.29 1004.49 1004.71 1004.95 1005.21 1005.49
1016.06 1015.92 1015.69 1015.36 1014.95 1014.47 1013.96 1013.43 1012.92 1012.43 1011.95 1011.49 1011.01 1010.52 1009.98 1009.41 1008.79 1008.15 1007.51 1006.89 1006.31 1005.79 1005.33 1004.94 1004.60 1004.31 1004.05 1003.81 1003.58 1003.37 1003.18 1003.02 1002.90 1002.83 1002.82 1002.87 1002.97 1003.13 1003.34 1003.58 1003.87 1004.19 1004.53
1015.72 1015.54 1015.28 1014.94 1014.52 1014.06 1013.58 1013.08 1012.60 1012.12 1011.65 1011.16 1010.65 1010.10 1009.50 1008.85 1008.16 1007.46 1006.76 1006.11 1005.51 1004.99 1004.55 1004.19 1003.88 1003.61 1003.37 1003.13 1002.89 1002.65 1002.42 1002.19 1002.00 1001.85 1001.77 1001.75 1001.80 1001.93 1002.13 1002.39 1002.72 1003.09 1003.50
1015.39 1015.15 1014.85 1014.48 1014.07 1013.63 1013.18 1012.73 1012.28 1011.83 1011.38 1010.89 1010.35 1009.76 1009.10 1008.39 1007.64 1006.88 1006.15 1005.46 1004.85 1004.33 1003.90 1003.54 1003.25 1003.00 1002.77 1002.53 1002.27 1002.00 1001.71 1001.43 1001.16 1000.94 1000.77 1000.68 1000.69 1000.78 1000.97 1001.24 1001.60 1002.02 1002.49
1015.09 1014.78 1014.43 1014.04 1013.63 1013.21 1012.80 1012.39 1011.99 1011.58 1011.15 1010.67 1010.13 1009.51 1008.81 1008.06 1007.27 1006.47 1005.69 1004.98 1004.34 1003.81 1003.36 1003.01 1002.71 1002.45 1002.21 1001.95 1001.67 1001.36 1001.03 1000.69 1000.36 1000.08 999.86 999.72 999.68 999.75 999.94 1000.22 1000.61 1001.07 1001.59
1014.84 1014.46 1014.06 1013.64 1013.23 1012.83 1012.45 1012.08 1011.73 1011.36 1010.96 1010.50 1009.96 1009.33 1008.62 1007.85 1007.03 1006.19 1005.39 1004.64 1003.97 1003.40 1002.93 1002.53 1002.20 1001.90 1001.62 1001.32 1001.00 1000.65 1000.29 999.91 999.56 999.25 999.01 998.86 998.82 998.89 999.08 999.39 999.81 1000.31 1000.88
1014.62 1014.18 1013.73 1013.29 1012.87 1012.49 1012.14 1011.81 1011.50 1011.16 1010.79 1010.35 1009.83 1009.21 1008.50 1007.71 1006.88 1006.03 1005.19 1004.41 1003.69 1003.07 1002.52 1002.05 1001.65 1001.27 1000.92 1000.56 1000.19 999.81 999.42 999.04 998.69 998.40 998.19 998.07 998.07 998.18 998.42 998.78 999.23 999.78 1000.39
1014.43 1013.93 1013.44 1012.99 1012.57 1012.20 1011.87 1011.57 1011.28 1010.98 1010.63 1010.20 1009.69 1009.09 1008.39 1007.61 1006.77 1005.91 1005.05 1004.22 1003.45 1002.74 1002.10 1001.53 1001.01 1000.53 1000.07 999.63 999.20 998.78 998.38 998.03 997.72 997.49 997.35 997.32 997.40 997.61 997.93 998.36 998.88 999.48 1000.13
1014.24 1013.71 1013.21 1012.74 1012.32 1011.96 1011.64 1011.36 1011.08 1010.78 1010.44 1010.03 1009.53 1008.94 1008.25 1007.48 1006.66 1005.79 1004.91 1004.04 1003.20 1002.40 1001.65 1000.95 1000.29 999.67 999.10 998.55 998.05 997.60 997.21 996.88 996.65 996.52 996.49 996.59 996.80 997.13 997.57 998.10 998.70 999.36 1000.06
1014.06 1013.51 1013.01 1012.54 1012.13 1011.77 1011.45 1011.16 1010.87 1010.56 1010.21 1009.80 1009.31 1008.73 1008.06 1007.32 1006.51 1005.65 1004.76 1003.85 1002.95 1002.06 1001.20 1000.36 999.56 998.80 998.09 997.44 996.87 996.38 995.99 995.72 995.57 995.55 995.66 995.91 996.27 996.74 997.31 997.95 998.65 999.39 1000.14
1013.87 1013.34 1012.84 1012.39 1011.98 1011.62 1011.28 1010.97 1010.65 1010.32 1009.94 1009.51 1009.02 1008.45 1007.81 1007.09 1006.31 1005.48 1004.60 1003.68 1002.74 1001.78 1000.82 999.86 998.93 998.04 997.21 996.47 995.82 995.30 994.92 994.69 994.62 994.71 994.95 995.34 995.85 996.47 997.16 997.91 998.69 999.49 1000.28
1013.69 1013.19 1012.71 1012.27 1011.87 1011.49 1011.13 1010.78 1010.42 1010.04 1009.63 1009.17 1008.67 1008.11 1007.49 1006.82 1006.09 1005.30 1004.45 1003.55 1002.60 1001.61 1000.59 999.56 998.54 997.55 996.63 995.80 995.11 994.56 994.18 993.99 993.98 994.16 994.51 995.01 995.63 996.35 997.14 997.96 998.81 999.64 1000.45
1013.53 1013.06 1012.61 1012.18 1011.77 1011.37 1010.97 1010.57 1010.16 1009.73 1009.27 1008.79 1008.27 1007.72 1007.14 1006.52 1005.84 1005.12 1004.34 1003.49 1002.58 1001.60 1000.58 999.53 998.47 997.44 996.47 995.61 994.88 994.32 993.95 993.78 993.81 994.04 994.45 995.01 995.69 996.46 997.29 998.14 999.00 999.83 1000.63
1013.39 1012.95 1012.52 1012.10 1011.68 1011.26 1010.82 1010.36 1009.89 1009.40 1008.90 1008.39 1007.86 1007.33 1006.78 1006.21 1005.62 1004.98 1004.28 1003.52 1002.69 1001.78 1000.81 999.80 998.77 997.76 996.80 995.94 995.22 994.67 994.31 994.15 994.20 994.43 994.85 995.41 996.09 996.84 997.65 998.47 999.28 1000.07 1000.82
1013.28 1012.87 1012.46 1012.04 1011.61 1011.15 1010.67 1010.17 1009.64 1009.10 1008.56 1008.01 1007.48 1006.96 1006.45 1005.94 1005.42 1004.88 1004.29 1003.65 1002.93 1002.13 1001.27 1000.35 999.41 998.47 997.58 996.78 996.10 995.58 995.24 995.09 995.13 995.34 995.72 996.23 996.84 997.51 998.23 998.96 999.68 1000.37 1001.02
1013.19 1012.80 1012.40 1011.99 1011.55 1011.07 1010.56 1010.02 1009.45 1008.87 1008.29 1007.73 1007.19 1006.68 1006.20 1005.75 1005.31 1004.85 1004.37 1003.85 1003.25 1002.59 1001.87 1001.09 1000.28 999.47 998.69 997.99 997.39 996.93 996.62 996.48 996.49 996.66 996.96 997.38 997.87 998.42 999.00 999.59 1000.17 1000.73 1001.26
1013.13 1012.77 1012.39 1011.98 1011.54 1011.06 1010.53 1009.97 1009.38 1008.78 1008.18 1007.60 1007.06 1006.56 1006.11 1005.69 1005.30 1004.92 1004.53 1004.11 1003.64 1003.11 1002.53 1001.91 1001.25 1000.59 999.96 999.38 998.89 998.51 998.24 998.11 998.11 998.21 998.43 998.72 999.07 999.47 999.88 1000.31 1000.73 1001.14 1001.54
1013.13 1012.79 1012.43 1012.04 1011.62 1011.15 1010.63 1010.07 1009.49 1008.89 1008.29 1007.71 1007.16 1006.67 1006.22 1005.82 1005.45 1005.11 1004.77 1004.42 1004.04 1003.63 1003.18 1002.69 1002.19 1001.68 1001.19 1000.75 1000.38 1000.08 999.87 999.75 999.73 999.78 999.90 1000.07 1000.28 1000.52 1000.77 1001.03 1001.30 1001.57 1001.84
1013.19 1012.88 1012.55 1012.20 1011.81 1011.38 1010.90 1010.37 1009.81 1009.23 1008.64 1008.07 1007.53 1007.03 1006.58 1006.17 1005.80 1005.46 1005.13 1004.81 1004.48 1004.13 1003.77 1003.39 1003.00 1002.62 1002.26 1001.94 1001.67 1001.45 1001.30 1001.20 1001.16 1001.17 1001.21 1001.28 1001.36 1001.46 1001.57 1001.68 1001.82 1001.96 1002.13
1013.34 1013.07 1012.78 1012.48 1012.14 1011.76 1011.34 1010.87 1010.36 1009.82 1009.27 1008.72 1008.18 1007.67 1007.20 1006.76 1006.36 1005.98 1005.63 1005.29 1004.96 1004.63 1004.31 1003.98 1003.67 1003.38 1003.11 1002.88 1002.68 1002.53 1002.42 1002.34 1002.29 1002.26 1002.24 1002.22 1002.21 1002.20 1002.19 1002.20 1002.24 1002.30 1002.40
Thickness
5788 5785 5783 5780 5779 5777 5774 5772 5771 5769 5767 5765 5763 5761 5759 5757 5755 5753 5751 5749 5746 5744 5743 5741 5739 5738 5735 5733 5731 5727 5724 5719 5712 5711 5711 5710 5707 5704 5702 5699 5696 5694 5692
5789 5785 5782 5780 5778 5775 5773 5771 5770 5768 5766 5764 5762 5760 5758 5756 5754 5752 5749 5748 5745 5742 5741 5739 5737 5735 5732 5730 5728 5725 5722 5719 5713 5708 5707 5704 5702 5700 5697 5694 5691 5689 5687
5788 5784 5781 5778 5776 5774 5772 5770 5768 5766 5764 5762 5760 5757 5756 5755 5753 5751 5749 5746 5744 5741 5739 5736 5734 5731 5728 5726 5723 5721 5719 5717 5712 5707 5703 5700 5697 5695 5691 5689 5686 5684 5682
5787 5783 5779 5777 5775 5773 5771 5769 5767 5765 5762 5760 5758 5756 5755 5753 5752 5749 5747 5744 5742 5739 5737 5735 5732 5729 5726 5724 5721 5718 5715 5711 5708 5703 5699 5696 5692 5690 5686 5682 5679 5678 5676
5784 5781 5778 5777 5774 5771 5768 5766 5764 5762 5760 5758 5755 5753 5752 5751 5749 5746 5744 5741 5738 5736 5734 5732 5730 5728 5725 5722 5718 5714 5711 5706 5702 5697 5693 5690 5686 5683 5681 5679 5675 5672 5670
5781 5778 5776 5773 5771 5768 5766 5763 5760 5758 5756 5754 5752 5750 5748 5748 5747 5744 5741 5738 5735 5732 5729 5727 5726 5723 5721 5718 5715 5713 5709 5704 5698 5694 5689 5686 5684 5681 5679 5675 5670 5665 5662
5777 5774 5772 5769 5767 5765 5763 5759 5756 5754 5752 5750 5748 5746 5744 5744 5743 5740 5737 5734 5731 5728 5725 5722 5721 5720 5716 5713 5710 5708 5706 5703 5700 5695 5689 5686 5682 5680 5676 5671 5667 5663 5662
5772 5770 5768 5766 5763 5761 5758 5755 5753 5750 5747 5745 5743 5742 5740 5740 5738 5735 5733 5729 5726 5724 5721 5718 5715 5713 5711 5708 5704 5701 5699 5697 5696 5693 5689 5686 5683 5680 5675 5671 5666 5661 5658
5766 5764 5763 5761 5758 5755 5752 5750 5748 5745 5742 5740 5739 5737 5734 5734 5731 5728 5725 5722 5720 5718 5716 5713 5711 5708 5706 5703 5698 5694 5692 5691 5690 5689 5687 5684 5680 5677 5672 5665 5660 5654 5651
5760 5759 5758 5756 5752 5749 5747 5744 5742 5740 5737 5735 5733 5732 5730 5728 5726 5723 5720 5716 5713 5711 5710 5708 5706 5704 5701 5698 5693 5689 5686 5685 5683 5682 5679 5677 5675 5672 5668 5663 5658 5651 5646
5754 5753 5751 5749 5746 5743 5740 5738 5735 5733 5730 5728 5726 5725 5724 5723 5721 5718 5715 5711 5708 5705 5702 5701 5700 5698 5694 5691 5688 5685 5683 5680 5677 5674 5671 5669 5667 5664 5662 5659 5655 5650 5644
5746 5744 5742 5740 5739 5737 5733 5730 5728 5725 5721 5719 5717 5716 5716 5715 5713 5711 5709 5706 5703 5699 5696 5695 5693 5691 5688 5684 5682 5680 5676 5673 5669 5666 5663 5661 5659 5657 5656 5653 5650 5647 5644
5737 5734 5733 5732 5730 5727 5724 5721 5718 5716 5713 5710 5708 5706 5706 5705 5704 5703 5700 5697 5695 5692 5690 5688 5686 5682 5679 5677 5675 5672 5669 5665 5661 5658 5657 5656 5655 5653 5650 5647 5643 5640 5637
5726 5724 5723 5722 5719 5718 5715 5713 5709 5706 5703 5701 5698 5696 5696 5695 5694 5693 5690 5687 5685 5682 5679 5678 5676 5674 5671 5669 5667 5664 5661 5659 5655 5653 5651 5650 5648 5645 5642 5639 5635 5632 5628
5716 5715 5713 5711 5708 5706 5704 5702 5700 5698 5696 5692 5690 5688 5685 5684 5685 5684 5680 5678 5676 5673 5670 5666 5664 5662 5660 5659 5658 5656 5653 5651 5648 5646 5644 5642 5639 5637 5635 5632 5628 5624 5621
5705 5704 5703 5700 5698 5696 5693 5691 5689 5688 5687 5684 5682 5679 5678 5677 5676 5674 5672 5670 5667 5664 5659 5657 5655 5654 5652 5651 5649 5647 5645 5644 5642 5639 5637 5634 5631 5629 5627 5624 5621 5617 5614
5695 5694 5692 5690 5688 5686 5684 5681 5677 5677 5676 5674 5673 5670 5668 5667 5666 5664 5662 5659 5656 5652 5649 5649 5647 5646 5645 5643 5641 5639 5638 5637 5635 5632 5629 5627 5625 5622 5619 5616 5613 5610 5608
5685 5684 5682 5680 5678 5676 5674 5671 5669 5666 5664 5663 5663 5661 5658 5656 5655 5654 5651 5649 5645 5641 5640 5640 5639 5638 5637 5635 5633 5632 5631 5629 5626 5624 5622 5620 5617 5614 5612 5608 5606 5603 5601
5674 5672 5671 5669 5668 5666 5664 5662 5659 5657 5655 5653 5651 5650 5649 5646 5644 5642 5640 5639 5638 5635 5634 5633 5632 5630 5629 5627 5625 5624 5623 5621 5619 5617 5615 5612 5610 5607 5605 5602 5600 5597 5594
5663 5663 5661 5658 5657 5655 5654 5652 5650 5647 5646 5644 5642 5641 5639 5636 5633 5632 5631 5630 5629 5628 5627 5626 5625 5623 5621 5619 5618 5616 5615 5613 5611 5609 5607 5605 5602 5600 5598 5595 5593 5590 5588
5653 5652 5652 5650 5647 5646 5645 5643 5641 5639 5637 5636 5635 5634 5631 5628 5627 5626 5624 5622 5621 5621 5621 5619 5618 5616 5614 5612 5610 5609 5608 5606 5605 5602 5600 5597 5595 5592 5590 5587 5585 5583 5580
5642 5642 5641 5639 5638 5637 5635 5634 5632 5630 5629 5628 5627 5625 5622 5620 5618 5617 5616 5615 5615 5614 5613 5611 5609 5608 5606 5604 5603 5601 5600 5598 5597 5595 5592 5590 5587 5584 5582 5579 5577 5575 5572
5632 5631 5631 5629 5628 5627 5625 5624 5622 5620 5618 5618 5617 5615 5613 5611 5610 5608 5607 5607 5606 5604 5603 5601 5600 5599 5598 5597 5596 5594 5592 5591 5589 5587 5584 5581 5579 5577 5574 5572 5570 5567 5565
5622 5621 5620 5619 5618 5617 5615 5614 5613 5611 5609 5608 5607 5605 5603 5602 5600 5600 5599 5598 5596 5595 5594 5592 5591 5590 5590 5589 5588 5586 5585 5583 5581 5579 5576 5574 5572 5570 5567 5565 5563 5560 5558
5612 5611 5609 5608 5607 5606 5605 5604 5602 5601 5599 5598 5597 5595 5594 5593 5591 5591 5590 5589 5587 5586 5585 5584 5583 5582 5581 5580 5579 5578 5576 5575 5572 5571 5569 5567 5564 5562 5560 5557 5555 5553 5551
5602 5600 5599 5598 5597 5595 5594 5592 5591 5590 5589 5588 5587 5585 5584 5583 5582 5582 5581 5580 5578 5577 5576 5575 5574 5573 5572 5571 5570 5568 5567 5565 5563 5562 5560 5559 5556 5554 5551 5549 5548 5545 5543